Weather History for KUIN - December, 2011

Change the Weather History Date:

Friday, December 16, 2011

  Actual Average Record
Temperature  
Mean Temperature 28 °F 29 °F  
Max Temperature 35 °F 37 °F 65 °F (2006)
Min Temperature 21 °F 22 °F -12 °F (1932)
Degree Days  
Heating Degree Days 37 36  
Month to date heating degree days 532  
Since 1 July heating degree days 1632  
Cooling Degree Days 0 0  
Month to date cooling degree days 0  
Year to date cooling degree days 1094  
Moisture  
Dew Point 22 °F    
Average Humidity 76    
Maximum Humidity 89    
Minimum Humidity 61    
Precipitation  
Precipitation 0.00 in 0.07 in 0.83 in (1940)
Month to date precipitation 1.30  
Year to date precipitation 36.38  
Sea Level Pressure  
Sea Level Pressure 30.40 in    
Wind  
Wind Speed 4 mph (NW)    
Max Wind Speed 7 mph    
Max Gust Speed -    
Visibility 10 miles    
Events      
T = Trace of Precipitation, MM = Missing Value Source: NWS Daily Summary

Daily Weather History Graph

Daily Weather History Graph

Search for Another Location

Airport or City:

Trip Planner

Search our weather history database for the weather conditions in past years. The results will help you decide how hot, cold, wet, or windy it might be!

Date:

Astronomy

Dec. 16, 2011 Rise Set
Actual Time 7:19 AM CST 4:40 PM CST
Civil Twilight 6:49 AM CST 5:11 PM CST
Nautical Twilight 6:15 AM CST 5:45 PM CST
Astronomical Twilight 5:42 AM CST 6:18 PM CST
Moon 11:14 PM CST (12/16) 11:06 AM CST (12/16)
Length of Visible Light 10h 22m
Length of Day
9h 21m
Waning Gibbous, 64% of the Moon is Illuminated
Dec 16
Waning Gibbous
Dec 17
Last Quarter
Dec 24
New
Jan 1
First Quarter
Jan 9
Full

Hourly Weather History & Observations

Time (CST) Temp. Windchill Dew Point Humidity Pressure Visibility Wind Dir Wind Speed Gust Speed Precip Events Conditions
12:54 AM 28.0 °F 22.8 °F 23.0 °F 81% 30.35 in 10.0 mi NW 4.6 mph - N/A   Clear
1:54 AM 27.0 °F - 23.0 °F 85% 30.37 in 10.0 mi Calm Calm - N/A   Clear
2:54 AM 26.6 °F 19.1 °F 21.2 °F 80% 30.34 in 10.0 mi NW 6.9 mph - N/A   Clear
3:54 AM 24.8 °F 17.9 °F 21.2 °F 86% 30.35 in 10.0 mi NNW 5.8 mph - N/A   Clear
4:54 AM 25.0 °F 18.1 °F 19.9 °F 81% 30.39 in 10.0 mi NNW 5.8 mph - N/A   Clear
5:54 AM 23.0 °F 15.8 °F 19.0 °F 85% 30.41 in 10.0 mi North 5.8 mph - N/A   Clear
6:54 AM 23.0 °F 14.7 °F 19.0 °F 85% 30.40 in 10.0 mi North 6.9 mph - N/A   Clear
7:54 AM 21.9 °F 15.7 °F 19.0 °F 89% 30.43 in 10.0 mi NNW 4.6 mph - N/A   Clear
8:54 AM 26.6 °F 22.6 °F 19.4 °F 74% 30.42 in 10.0 mi NNW 3.5 mph - N/A   Clear
9:54 AM 28.9 °F - 21.0 °F 72% 30.47 in 10.0 mi Calm Calm - N/A   Clear
10:54 AM 28.9 °F 25.2 °F 21.0 °F 72% 30.46 in 10.0 mi North 3.5 mph - N/A   Clear
11:54 AM 30.9 °F - 21.9 °F 69% 30.44 in 10.0 mi Calm Calm - N/A   Clear
12:54 PM 33.1 °F 30.0 °F 21.9 °F 64% 30.41 in 10.0 mi Variable 3.5 mph - N/A   Clear
1:54 PM 35.1 °F 30.1 °F 23.0 °F 61% 30.41 in 10.0 mi WNW 5.8 mph - N/A   Clear
2:54 PM 35.1 °F 29.3 °F 23.0 °F 61% 30.39 in 10.0 mi WNW 6.9 mph - N/A   Clear
3:54 PM 34.0 °F 28.8 °F 21.9 °F 61% 30.40 in 10.0 mi WNW 5.8 mph - N/A   Clear
4:54 PM 30.9 °F 27.5 °F 24.1 °F 76% 30.40 in 10.0 mi NW 3.5 mph - N/A   Clear
5:54 PM 30.9 °F - 23.0 °F 72% 30.41 in 10.0 mi Calm Calm - N/A   Clear
6:54 PM 28.9 °F - 24.1 °F 82% 30.41 in 10.0 mi Calm Calm - N/A   Clear
7:54 PM 28.9 °F - 21.9 °F 75% 30.41 in 10.0 mi Calm Calm - N/A   Clear
8:54 PM 28.0 °F 22.8 °F 21.0 °F 75% 30.39 in 10.0 mi South 4.6 mph - N/A   Clear
9:54 PM 28.0 °F 24.2 °F 23.0 °F 81% 30.40 in 10.0 mi SW 3.5 mph - N/A   Scattered Clouds
10:54 PM 27.0 °F 23.0 °F 21.0 °F 78% 30.39 in 10.0 mi South 3.5 mph - N/A   Partly Cloudy
11:54 PM 28.9 °F 23.9 °F 23.0 °F 78% 30.38 in 10.0 mi South 4.6 mph - N/A   Overcast